Wind_Speed
11 11 11 11 11 11 10 10 10 10 9 9 9 9 9 9 9 9 9 8 8 9 9 9 9 9 9 9 9 8 8 8 8 7 7 6 6 5 5 5 5 4 4 4 4 5 5 5 5 5 6 6 7 6 6 7 6 8 9 10 12 9 9 12 12 14 17 19 21 24 21 17 18 19 14 13 15 15 17 15 15 17 17 18 19 20 21 19
11 12 12 12 12 12 12 11 11 11 11 11 11 10 10 10 10 10 10 10 10 10 10 10 10 11 11 11 11 11 10 10 10 8 8 9 8 7 6 6 6 6 6 5 5 6 6 6 6 6 7 7 7 7 8 8 8 10 10 12 13 9 11 15 17 21 22 21 21 23 25 19 18 21 17 14 16 17 17 15 15 17 17 18 18 20 20 18
13 13 13 13 13 13 13 13 13 13 13 13 12 12 12 12 12 12 12 11 11 11 11 11 12 12 12 13 13 13 12 12 12 9 9 10 10 8 8 8 8 7 7 7 6 7 8 8 8 8 9 9 9 8 9 9 10 11 12 14 14 11 14 17 20 24 22 21 21 22 26 23 19 22 21 17 18 20 19 16 18 19 18 21 21 20 20 18
14 14 14 14 14 14 14 14 14 14 14 14 14 14 13 13 13 13 13 13 13 13 13 13 13 13 13 14 14 14 14 14 12 9 10 11 10 10 9 9 10 9 9 9 8 8 8 9 9 9 10 10 11 11 10 11 11 13 15 16 15 14 18 19 22 25 23 22 23 22 26 25 22 24 23 20 22 22 19 18 21 21 20 23 23 20 20 20
15 15 15 15 15 16 16 16 16 16 16 16 16 15 15 15 14 14 14 14 14 15 14 14 14 14 15 15 15 15 15 14 11 8 9 9 9 10 11 11 11 11 11 11 9 9 10 10 10 10 11 10 11 13 13 13 13 15 17 18 17 17 20 21 22 25 23 24 24 23 25 25 24 25 24 24 24 20 18 20 22 23 24 25 24 21 20 20
17 17 17 17 17 17 17 17 17 17 17 17 17 17 16 16 15 15 15 15 15 16 16 15 15 15 16 16 16 16 15 14 10 8 8 9 11 12 12 13 13 13 13 13 11 11 11 11 11 11 13 11 10 12 14 16 18 19 20 19 18 19 22 23 24 25 24 26 26 25 25 25 26 26 24 25 23 17 17 21 23 23 24 26 26 24 22 21
18 18 18 18 18 18 18 18 18 18 18 18 19 18 18 18 17 17 16 16 16 16 17 16 17 17 17 17 17 17 17 15 13 13 14 13 14 14 14 14 14 15 14 14 14 14 13 13 13 12 14 13 10 10 13 19 23 25 24 20 18 21 24 24 26 27 25 26 26 27 28 25 26 27 25 24 20 17 17 20 23 22 21 25 27 25 25 24
19 19 20 20 20 20 20 20 20 20 20 20 20 20 20 20 19 18 18 17 17 17 18 17 18 18 18 18 18 19 18 15 14 16 17 16 15 15 16 16 16 16 15 16 16 16 15 15 14 14 16 14 12 13 15 20 25 26 24 22 22 25 25 25 27 28 26 26 27 29 29 26 25 28 29 23 17 17 17 17 20 21 21 24 27 27 27 27
20 21 21 21 21 21 21 21 21 21 21 21 22 22 22 22 21 21 20 20 19 19 19 19 19 19 19 19 20 20 18 16 15 16 17 17 17 17 17 17 17 17 17 17 17 17 17 16 17 17 18 17 16 18 19 22 24 25 24 25 27 27 26 27 29 30 28 27 29 30 28 27 25 29 32 22 15 16 16 18 20 23 24 25 28 28 27 28
21 22 22 22 23 23 23 23 23 23 23 23 23 23 24 24 24 23 23 22 22 21 21 21 21 21 21 20 21 22 17 16 17 17 17 18 18 19 18 18 19 18 18 18 18 18 18 18 19 19 20 20 20 20 20 23 25 24 25 27 29 29 28 28 30 31 31 29 30 29 28 26 25 31 31 20 16 18 17 19 20 23 25 23 25 28 28 29
22 22 23 23 24 24 25 25 25 25 25 25 25 25 25 26 26 25 25 25 25 24 24 23 23 23 23 23 24 23 18 17 19 18 18 18 19 20 20 20 20 20 20 19 19 19 19 19 20 20 21 21 21 22 23 24 25 24 26 29 30 30 30 30 30 29 29 29 28 28 28 27 28 32 29 20 19 22 21 21 21 23 24 23 25 27 29 30
22 23 23 24 24 25 25 26 26 26 26 26 26 27 27 27 28 27 27 27 27 27 27 26 26 26 26 26 25 23 21 20 21 20 20 20 20 21 22 22 22 22 22 21 20 20 20 21 21 22 22 23 24 24 25 26 25 26 28 32 32 31 31 29 27 26 25 26 25 25 29 28 29 31 29 24 25 26 25 24 23 24 25 26 26 27 29 30
24 24 24 24 24 25 26 26 26 27 27 27 27 27 28 29 29 29 29 29 29 29 29 29 29 30 30 30 26 24 23 23 23 22 21 21 22 23 23 25 25 24 24 23 22 21 21 23 23 24 24 25 27 26 27 27 26 29 29 30 32 32 31 27 24 24 23 24 24 23 28 32 30 29 28 26 28 30 29 27 26 28 29 28 27 27 29 30
26 26 25 25 25 25 26 26 27 27 27 28 28 28 29 29 30 31 31 31 31 31 32 32 32 33 34 32 28 27 26 24 25 23 22 23 24 24 25 26 26 26 26 25 25 24 24 25 25 26 26 27 29 29 29 28 28 30 28 28 29 30 31 29 27 26 23 25 25 22 29 36 32 28 28 26 29 32 32 31 30 32 33 31 28 29 31 32
28 27 27 27 26 26 27 27 27 27 27 28 28 28 29 29 30 31 31 31 32 32 32 33 34 35 37 36 31 30 30 28 28 25 24 25 25 26 27 27 27 28 28 27 27 27 27 28 27 27 27 29 30 31 30 29 29 28 26 27 28 28 30 29 28 28 25 24 24 24 30 37 35 32 32 30 31 33 35 36 34 34 36 34 32 32 34 35
30 29 28 28 28 28 27 28 29 28 28 28 28 28 29 30 30 30 31 31 32 32 32 34 34 35 37 37 33 31 30 29 28 26 26 27 27 28 28 28 29 29 29 29 28 29 30 30 30 29 29 31 31 31 29 27 31 27 24 26 26 27 28 27 27 27 25 25 26 28 32 38 39 37 37 36 34 35 38 39 36 36 38 37 36 37 39 40
32 31 31 30 30 29 29 29 29 29 29 28 28 29 29 30 30 31 31 32 32 32 33 34 34 36 39 37 34 33 31 30 29 28 28 27 28 29 29 29 30 30 30 30 30 32 32 31 31 31 31 32 32 30 22 22 30 28 22 23 24 27 27 25 26 24 24 27 28 30 35 42 44 41 39 37 36 39 41 41 39 39 40 40 38 37 40 42
31 32 32 32 32 31 31 31 31 30 29 28 29 29 30 31 31 32 33 33 34 34 35 36 35 37 38 35 33 32 30 29 28 27 27 28 30 31 32 32 31 31 31 32 33 34 33 32 33 32 33 35 35 32 26 27 32 30 26 26 26 27 28 29 31 28 27 31 30 30 37 46 47 43 41 39 38 40 42 43 44 44 43 42 40 38 38 40
30 31 32 32 32 32 32 33 32 31 30 29 29 30 30 31 33 34 35 35 36 36 37 37 36 36 37 34 32 31 30 29 28 27 27 27 29 30 32 32 33 33 33 33 35 34 33 34 33 34 37 39 39 37 36 36 34 30 30 30 29 30 34 40 40 34 32 35 36 37 42 47 47 44 43 43 42 43 45 45 46 47 45 43 42 40 38 37
29 30 30 31 32 32 33 33 32 32 31 30 30 31 31 32 34 35 36 37 37 37 37 39 40 39 38 39 37 35 34 33 33 33 31 30 31 32 32 32 34 34 35 37 36 34 34 36 37 40 41 40 39 37 36 33 29 27 29 30 31 33 40 45 42 37 34 35 38 41 44 45 45 45 45 44 44 46 48 47 47 46 43 41 39 39 38 37
29 29 30 30 30 31 31 32 32 31 31 31 30 31 32 33 34 36 38 40 38 38 39 39 41 42 41 41 39 37 36 36 36 35 33 34 33 34 36 36 38 37 37 36 34 34 37 41 44 44 41 39 39 36 31 28 27 27 29 32 34 37 43 45 40 35 33 35 39 41 42 43 45 48 48 46 47 49 49 47 45 41 37 37 36 36 38 39
30 30 30 30 30 30 30 30 30 29 30 30 30 31 32 32 35 37 40 44 43 40 41 41 41 43 42 41 40 38 38 39 39 38 36 35 36 37 38 40 41 42 41 37 35 38 42 47 48 42 38 38 39 38 35 34 35 35 36 38 38 41 44 42 36 32 31 35 37 37 40 44 49 52 51 50 49 48 46 43 39 36 36 37 36 35 38 40
31 31 31 31 30 30 30 29 29 28 27 28 28 29 31 32 35 37 39 46 48 43 42 43 43 43 41 42 42 39 41 42 41 41 36 36 40 39 40 43 43 42 42 42 43 46 48 49 47 40 37 39 40 38 36 35 38 40 40 39 41 43 42 39 38 34 32 34 37 39 44 50 54 53 52 48 43 39 36 35 36 36 38 38 37 38 38 39
32 32 32 32 31 31 31 30 30 29 28 28 27 28 30 31 33 35 39 46 52 49 45 44 44 46 43 42 42 40 43 43 42 44 39 38 42 40 42 45 44 43 44 44 45 50 53 50 44 41 41 42 42 40 35 35 42 45 42 39 43 46 42 41 41 37 36 38 40 42 43 47 49 45 46 41 32 31 31 34 37 38 39 38 36 35 34 36
33 33 33 32 32 33 32 32 31 31 30 29 28 29 30 31 31 34 37 43 52 53 47 44 44 44 44 43 42 43 45 45 45 45 42 42 43 42 43 43 43 46 45 43 43 49 53 48 42 42 44 44 45 44 39 37 45 48 43 41 43 44 42 39 37 35 36 35 36 32 25 33 40 35 37 38 34 37 38 37 40 38 36 34 31 30 29 31
34 34 34 34 34 34 33 34 33 32 32 30 30 30 30 30 31 31 34 40 49 49 41 35 34 35 37 38 38 40 42 47 47 45 45 45 44 44 45 45 46 46 44 40 41 45 46 42 41 42 43 44 44 45 44 40 43 47 44 42 41 39 37 36 35 34 30 27 30 25 15 29 46 39 37 41 39 40 39 38 40 35 31 28 27 28 27 28
34 35 35 36 35 35 35 35 34 33 33 32 31 31 31 31 29 29 30 29 34 34 24 17 17 21 27 29 30 31 34 40 42 43 47 47 45 45 45 48 47 45 43 37 37 42 41 37 37 39 40 42 42 43 43 38 39 44 43 39 37 35 34 34 35 34 32 33 34 29 21 30 46 42 36 38 35 35 36 36 34 28 26 27 25 23 22 24
34 35 36 36 35 35 35 34 34 34 33 34 33 31 31 30 27 26 20 12 13 16 12 9 7 10 14 19 23 27 31 35 33 34 40 42 43 44 45 48 47 46 43 37 40 46 42 38 38 38 37 38 41 42 40 35 36 41 40 36 34 33 32 34 35 34 35 33 25 23 19 19 37 44 34 31 30 29 30 27 25 25 24 24 21 18 16 17
34 36 36 35 34 34 34 34 34 34 34 34 32 30 30 26 25 21 12 10 14 14 14 14 13 11 11 15 21 26 31 33 31 30 30 30 34 38 40 42 42 44 42 39 46 48 43 42 41 40 39 39 42 43 40 38 38 39 38 36 33 31 31 31 32 33 31 26 19 20 18 14 31 45 31 24 24 22 22 20 20 23 20 20 23 20 15 16
35 36 36 36 35 33 34 34 31 31 33 32 28 28 27 24 22 15 9 15 17 13 14 14 13 12 11 13 18 22 25 26 29 30 27 25 26 29 32 33 35 40 40 41 46 46 44 45 43 41 40 40 41 40 39 39 38 38 37 35 32 30 32 29 29 27 18 17 22 26 28 23 20 23 12 12 14 17 21 16 15 15 13 21 31 27 21 19
35 37 38 39 37 33 35 33 29 29 30 30 27 24 23 22 19 11 11 21 23 20 24 21 16 14 14 15 17 20 21 21 23 25 26 27 27 28 30 30 31 33 35 40 43 41 41 44 44 43 40 39 39 39 39 38 38 37 33 32 28 23 22 19 17 14 6 13 24 25 28 28 23 13 6 7 14 24 25 17 15 12 11 23 33 29 26 22
36 38 41 43 42 39 38 35 33 32 31 30 27 24 23 17 17 24 26 24 16 14 20 20 18 18 17 20 22 22 23 24 25 25 26 27 29 32 33 32 32 28 29 35 37 36 40 43 41 38 39 37 37 38 39 38 38 38 35 29 18 9 8 7 5 5 7 20 31 29 26 28 36 37 30 25 26 30 29 24 19 13 13 24 30 26 26 23
35 37 40 42 43 43 44 41 39 39 36 33 29 29 24 12 21 40 38 26 17 13 15 16 15 15 15 20 24 23 24 25 26 25 27 30 33 36 35 35 33 28 27 29 27 25 29 33 33 33 35 35 36 38 38 37 37 38 38 31 18 6 3 4 4 4 11 22 29 27 22 20 26 33 30 29 29 26 27 27 22 19 21 25 27 25 24 21
34 35 37 39 38 39 42 43 42 41 38 34 31 28 21 17 32 41 28 22 24 23 26 25 20 19 22 25 26 25 26 27 27 27 30 34 37 39 39 38 36 34 34 32 28 23 19 23 32 34 33 33 35 35 33 35 37 38 36 32 28 21 11 5 6 7 8 17 23 17 13 13 18 23 22 26 29 26 31 37 30 25 24 23 23 23 21 20
36 36 35 35 36 37 39 39 40 40 36 34 32 26 26 31 44 42 29 26 25 23 28 31 30 31 33 32 31 30 28 29 30 31 33 38 40 41 41 40 37 36 34 31 31 29 25 33 42 39 35 37 37 33 29 29 34 37 31 27 32 34 28 19 21 26 16 12 20 18 17 29 40 44 44 42 40 35 39 46 36 27 22 19 20 20 18 19
38 39 38 37 39 39 38 37 38 37 36 38 34 31 37 45 46 40 30 24 20 21 24 26 30 33 35 35 34 34 32 32 34 34 36 39 42 43 43 41 39 37 37 36 35 28 24 33 41 37 35 39 36 33 31 28 30 31 28 31 35 37 37 28 24 31 20 8 20 25 24 37 45 47 44 38 35 33 35 39 31 24 20 16 17 17 17 19
40 41 42 43 44 41 36 35 36 35 37 40 38 37 44 51 49 44 35 27 26 26 23 23 26 28 29 30 31 32 31 33 36 37 37 38 40 44 44 42 41 40 40 41 41 38 31 33 41 40 35 34 30 28 30 33 35 31 29 33 34 29 33 27 11 10 10 6 18 28 28 33 34 30 24 16 15 20 24 28 24 19 14 12 14 17 18 21
40 41 42 43 43 42 38 36 37 36 36 39 43 44 46 48 48 45 41 38 39 37 33 32 31 29 29 30 31 30 28 32 37 38 39 39 39 42 41 40 42 43 41 40 43 45 39 34 38 43 40 33 29 27 30 35 37 38 38 37 30 21 21 23 12 4 8 4 8 21 27 34 41 39 32 25 22 25 24 20 17 16 12 10 14 18 17 19
38 40 44 45 43 41 39 38 38 35 34 39 46 47 45 44 43 40 39 39 39 39 38 37 35 32 30 32 32 29 26 29 34 36 38 37 35 37 34 32 34 35 35 38 42 46 44 33 28 36 40 31 29 34 38 39 37 39 43 40 38 28 17 21 21 14 11 6 7 14 15 31 50 44 37 33 27 26 19 12 13 10 10 11 13 15 17 19
37 39 45 49 47 42 39 38 37 34 35 40 45 46 44 43 43 42 42 42 39 38 38 37 36 33 32 35 35 34 33 31 30 33 35 32 31 30 27 24 25 27 29 32 36 40 44 39 29 32 35 29 33 41 41 42 40 42 45 42 41 35 22 18 20 24 21 8 6 7 5 34 53 26 12 17 14 14 12 10 8 9 9 13 13 13 18 22
38 41 45 47 46 44 40 38 38 37 38 41 44 47 45 44 46 45 44 43 41 40 40 41 40 38 37 36 35 35 33 30 28 29 31 31 28 25 21 17 18 21 24 27 31 33 38 39 35 34 35 36 44 49 47 48 46 44 47 47 45 42 33 18 12 27 34 18 13 10 5 37 54 17 2 13 12 9 13 12 13 11 10 18 19 18 22 26
38 42 45 45 44 44 41 39 38 36 38 40 42 45 44 43 46 44 41 41 42 43 43 43 44 44 44 42 39 37 34 33 30 29 30 31 28 26 24 18 16 17 19 23 27 29 33 36 35 36 41 45 48 49 48 48 44 42 44 44 45 46 44 31 16 23 30 22 24 22 10 37 64 41 28 32 21 14 17 19 20 16 21 27 27 28 33 35
39 41 42 43 44 45 43 41 41 42 44 42 41 42 43 42 43 42 40 41 42 44 44 43 44 45 45 45 45 42 40 40 40 39 37 35 32 33 32 29 29 27 24 25 23 21 24 30 31 32 38 44 47 46 44 41 35 36 40 41 43 45 46 43 34 30 26 17 22 20 10 32 63 54 43 47 41 32 29 28 28 28 33 34 34 39 43 44
40 40 41 41 42 44 45 45 46 50 52 49 46 46 46 46 47 47 47 47 46 46 46 45 45 44 43 42 42 40 36 35 37 40 41 41 39 37 35 33 34 35 32 30 24 16 15 21 25 24 22 25 30 33 37 37 30 28 33 37 41 43 40 38 38 34 25 22 28 21 10 28 54 52 41 39 38 35 37 38 38 38 40 41 43 47 47 45
42 42 42 42 43 45 47 48 47 49 51 50 50 51 50 50 52 54 55 54 52 50 50 50 49 47 44 41 39 38 35 34 35 36 38 41 40 38 37 35 34 36 38 38 35 28 24 23 21 15 11 10 13 18 26 29 25 23 27 31 33 36 35 35 37 30 20 26 38 30 22 38 55 55 51 48 44 42 43 45 46 48 51 51 50 51 51 48
42 43 43 43 44 46 50 50 49 49 50 49 49 50 50 52 55 56 56 54 51 49 50 51 49 45 42 40 40 41 41 41 40 40 41 43 42 43 44 40 36 36 38 40 42 41 40 37 32 25 22 21 23 27 31 31 31 33 33 32 29 27 29 32 34 30 26 31 39 38 38 45 51 55 61 64 60 58 57 57 57 58 56 54 53 55 55 51
42 43 44 42 40 41 45 48 47 47 47 45 46 48 49 52 54 52 51 51 50 48 48 48 47 45 43 43 44 45 46 45 44 43 44 45 47 50 49 45 42 41 40 40 40 41 45 47 46 44 43 42 42 45 45 45 47 48 45 43 41 36 36 36 36 38 40 34 31 38 45 48 52 57 62 65 65 62 59 57 58 57 57 57 56 54 50 49
43 44 43 41 39 38 40 43 47 48 45 42 43 44 44 45 47 48 50 52 50 46 44 44 45 46 46 46 47 49 47 45 44 44 44 47 51 53 52 51 49 47 45 43 44 44 46 45 45 48 51 53 55 55 56 57 58 57 53 52 52 49 45 43 43 48 50 42 37 44 51 54 59 61 61 66 68 64 62 63 64 62 61 57 49 42 42 47
43 44 42 40 41 41 41 42 45 47 45 42 41 42 43 44 46 48 48 49 49 45 43 46 47 47 48 48 49 52 50 46 46 48 49 51 52 50 51 53 52 50 47 46 46 45 43 43 42 44 47 50 50 50 54 58 61 63 61 57 55 55 53 53 54 56 55 52 53 56 57 61 65 66 68 70 68 66 68 69 63 56 50 44 36 36 44 49
41 41 40 41 44 46 46 45 43 43 45 43 42 44 46 48 49 50 49 50 50 48 46 48 50 49 49 51 52 54 54 52 53 55 54 52 50 48 49 50 51 51 47 45 45 42 42 44 44 44 45 47 48 49 50 52 57 62 64 61 57 57 60 63 63 60 58 59 61 61 59 60 66 70 71 69 66 68 68 59 48 41 38 37 38 42 47 49
40 40 39 41 46 48 48 50 48 48 49 49 50 51 51 51 52 52 53 55 54 52 51 51 51 50 49 51 53 55 55 56 58 58 57 55 54 52 53 52 52 52 49 47 46 42 42 44 44 42 41 44 50 52 52 55 57 60 63 61 59 61 66 66 63 61 63 65 64 60 57 61 69 71 66 63 64 67 62 52 42 37 36 38 41 43 45 48
37 40 39 40 44 47 47 49 50 50 50 52 52 52 50 51 52 50 51 54 52 53 55 54 54 54 54 54 55 56 57 57 59 59 57 57 57 57 57 56 54 53 52 50 47 45 44 44 44 41 37 40 47 49 52 51 40 41 53 58 60 66 68 65 63 62 63 65 62 60 61 64 66 64 61 62 65 65 61 54 47 42 40 40 41 42 44 46
Wind_Direction
285 285 285 286 288 289 291 293 294 295 293 292 291 290 291 293 296 298 299 301 300 301 302 303 301 299 297 293 291 290 289 291 288 294 302 295 294 303 308 313 321 329 336 344 344 348 351 349 348 343 347 345 337 335 325 321 306 289 290 281 286 301 287 276 270 268 279 285 285 293 301 302 297 300 303 296 294 293 293 299 295 289 286 282 281 284 290 292
282 282 283 283 283 284 285 287 288 288 288 288 287 286 286 287 289 290 290 292 291 293 293 293 294 294 293 290 289 286 285 286 283 288 291 282 277 284 291 290 297 303 305 313 317 324 327 325 325 325 330 329 324 319 313 315 302 295 292 281 293 305 275 268 271 274 283 290 291 296 300 302 297 297 302 300 295 293 296 304 296 291 293 290 288 289 296 299
278 279 280 280 280 280 281 282 282 283 283 283 284 284 284 284 286 287 288 287 288 287 286 287 287 288 289 289 287 285 284 284 285 288 281 271 265 272 281 278 280 285 290 296 300 306 310 312 315 317 319 318 314 308 306 308 301 294 283 283 301 297 269 269 278 284 293 297 295 294 295 298 297 294 297 300 294 292 298 302 295 296 299 296 295 297 300 300
276 276 276 276 277 277 278 279 279 279 279 280 280 281 281 282 282 284 285 286 286 286 285 285 284 284 284 285 285 285 284 283 286 284 274 267 259 267 276 274 272 274 279 282 286 292 297 301 305 306 307 312 312 304 306 305 296 289 286 293 304 289 273 275 281 288 297 299 296 293 292 294 294 291 294 296 290 292 300 299 295 297 296 294 296 298 298 295
276 276 275 275 275 275 276 276 277 277 277 278 278 279 279 279 279 279 281 282 283 283 283 282 282 283 282 282 282 283 283 285 288 277 268 263 258 268 273 271 270 271 273 275 278 280 284 289 291 294 294 305 306 297 307 306 291 289 294 298 301 292 283 288 291 293 299 298 295 293 290 292 291 289 292 290 288 296 303 296 296 297 295 295 296 297 294 291
275 276 275 275 275 275 275 275 275 276 276 277 278 278 278 278 278 277 277 277 278 279 279 279 279 279 280 280 280 279 278 279 281 271 266 262 259 266 268 266 266 267 269 272 273 273 276 278 279 285 286 292 299 296 301 295 289 293 295 297 296 286 284 294 297 296 300 298 295 293 289 290 290 289 289 286 289 300 300 293 291 290 290 290 291 294 295 292
273 274 275 275 275 275 275 275 275 275 276 277 278 279 279 279 279 278 277 276 276 276 276 276 276 276 276 277 277 276 273 273 277 273 270 263 259 262 261 259 260 263 266 267 269 270 271 272 275 280 279 285 294 288 278 273 280 289 293 298 289 277 283 295 295 296 298 296 295 293 290 291 289 289 285 285 295 301 293 287 284 281 281 282 284 290 293 292
270 271 273 274 274 274 274 274 275 275 276 277 278 279 279 280 279 279 278 277 276 275 275 275 274 274 273 273 273 271 272 274 274 271 268 262 259 258 257 256 257 260 263 265 268 269 270 272 273 273 273 278 279 269 265 268 276 285 292 299 292 288 295 297 294 295 295 293 292 290 290 291 289 288 283 285 299 300 289 280 277 276 276 279 284 287 289 288
267 269 270 271 272 273 273 273 274 274 275 276 276 277 278 279 279 279 279 278 277 275 275 274 273 272 271 272 271 269 272 275 270 267 265 262 259 256 256 256 257 260 263 266 268 269 270 270 269 271 274 278 277 273 275 274 277 287 294 294 293 295 299 297 295 295 295 293 290 288 288 287 287 283 281 290 301 293 282 274 274 276 276 281 285 286 285 285
266 267 268 269 271 271 272 273 273 273 273 274 275 276 277 277 278 278 279 279 277 277 276 274 273 272 271 270 269 268 273 274 269 265 262 260 259 256 256 257 257 261 265 268 270 271 271 268 269 275 279 281 279 279 280 277 281 290 292 290 292 295 296 294 292 293 295 293 289 288 286 285 282 276 282 300 299 282 274 274 277 278 280 283 284 286 287 285
266 267 267 268 270 271 272 272 272 273 273 274 274 274 275 276 276 277 277 278 278 278 278 277 276 273 271 268 266 268 273 270 266 265 261 260 260 258 256 256 258 261 264 268 269 270 270 268 269 272 276 279 281 281 281 283 288 293 291 291 294 294 295 294 292 293 293 290 288 288 286 283 277 275 289 306 294 283 280 281 282 282 285 286 286 289 289 289
265 265 266 267 268 270 271 272 272 273 274 274 274 275 275 275 276 276 276 277 278 279 279 279 278 276 273 268 265 268 270 267 265 264 261 261 260 259 258 258 260 262 264 265 267 268 267 266 267 268 271 275 280 281 282 288 293 294 294 295 298 297 296 298 299 296 290 287 289 288 283 280 277 282 296 300 291 290 288 286 285 285 288 289 290 290 289 290
265 265 265 265 267 268 270 271 271 272 273 274 274 275 275 276 277 277 277 277 278 279 279 280 279 278 275 270 267 268 266 264 264 263 262 262 260 260 259 259 260 262 262 262 265 266 263 263 264 266 270 273 278 279 281 288 292 294 294 294 299 302 302 306 308 299 289 290 294 286 278 282 287 292 298 297 292 292 290 289 288 288 289 289 291 291 291 292
265 265 265 265 265 266 268 269 270 271 272 273 273 274 274 275 276 277 278 278 279 279 280 281 281 280 278 272 268 268 266 264 262 262 264 263 261 261 260 260 261 261 262 262 263 264 262 262 262 265 268 271 277 278 281 286 290 294 293 294 301 300 303 312 310 300 289 289 294 281 274 287 297 299 300 298 293 293 292 292 292 292 291 289 289 290 292 292
265 266 266 266 266 266 267 268 269 270 270 271 273 274 274 274 274 275 276 277 278 279 280 280 280 281 280 275 269 269 269 267 266 266 266 264 262 262 261 262 263 262 263 262 262 264 262 260 261 264 267 271 275 277 281 286 288 291 287 293 302 295 301 313 306 298 290 284 286 275 274 290 300 302 303 301 294 291 291 292 293 293 294 293 294 294 294 294
267 267 267 268 268 268 268 268 269 269 269 270 270 271 273 273 274 274 275 275 276 277 278 278 278 279 279 277 273 270 270 271 271 268 266 265 264 262 262 263 264 263 264 263 263 263 262 261 261 262 266 270 274 278 285 287 285 287 280 286 298 294 296 304 297 294 289 278 276 276 279 289 296 301 304 303 297 291 288 289 291 293 294 296 298 299 298 298
268 268 268 268 269 269 269 269 269 270 270 270 270 269 270 271 272 273 273 273 274 275 275 275 275 275 275 275 275 274 273 274 273 269 267 266 265 264 263 264 265 265 265 264 263 262 262 261 261 261 265 268 271 275 276 273 280 287 282 279 291 294 292 292 289 289 286 278 277 279 280 286 294 300 301 300 297 292 289 289 291 293 293 294 296 297 298 299
269 269 269 269 269 269 269 269 270 270 271 271 271 270 269 269 270 270 270 271 272 273 273 273 274 274 274 275 276 275 274 274 272 270 269 268 266 266 266 266 266 265 264 263 261 261 261 260 259 261 263 264 266 266 259 266 281 287 285 282 285 287 283 280 279 281 285 284 280 275 278 287 295 299 298 296 294 290 289 290 292 294 294 296 296 295 295 297
273 272 271 271 271 270 270 271 271 271 272 272 272 273 273 272 271 269 269 269 269 270 272 274 272 272 275 276 275 274 272 271 271 271 271 270 268 267 268 268 266 264 263 262 260 259 259 258 256 256 260 262 264 267 269 280 289 287 285 283 280 281 281 282 282 281 286 284 281 279 280 287 294 296 297 295 293 291 289 290 292 296 297 298 297 296 295 295
276 275 274 274 273 273 273 273 273 273 273 273 273 274 274 274 274 273 271 269 267 268 269 270 271 270 271 273 273 272 272 271 271 271 270 268 266 266 267 267 268 265 261 262 261 261 260 258 254 254 260 263 265 272 279 286 290 286 283 278 277 280 281 287 289 286 288 282 280 285 284 285 290 294 296 295 293 291 291 292 294 297 297 296 296 297 297 294
276 277 277 277 277 277 276 276 276 276 276 276 275 275 275 276 276 276 275 272 269 267 266 265 269 269 268 270 271 270 271 270 268 267 267 266 266 266 265 264 265 263 262 263 264 263 260 257 256 257 262 265 268 275 275 273 275 274 272 272 275 278 281 290 292 289 290 281 280 286 282 281 287 291 293 292 290 290 292 294 295 296 294 295 299 301 300 296
274 276 277 278 279 279 280 280 279 279 279 280 279 279 279 279 278 278 278 277 272 269 268 267 266 267 267 268 269 269 268 267 266 264 264 265 265 264 265 264 262 263 263 261 261 262 259 257 259 261 265 267 270 273 269 267 269 268 268 271 274 279 284 289 288 288 289 282 283 287 282 281 286 289 290 289 289 291 293 292 293 295 296 299 306 309 303 294
272 274 275 277 278 280 280 281 281 282 283 283 283 284 283 282 282 281 281 280 277 272 270 270 269 267 267 266 267 268 267 266 266 265 263 262 262 262 263 263 263 263 262 261 260 259 258 260 264 267 268 269 270 270 270 272 272 270 271 273 274 280 283 283 284 287 287 284 286 289 287 286 287 288 288 290 292 293 293 292 293 299 304 308 312 309 300 290
271 272 274 275 277 278 279 280 282 283 283 284 286 287 286 286 285 286 285 284 282 278 272 271 272 270 269 267 266 266 266 265 263 263 261 259 259 259 260 262 263 262 260 262 263 262 262 264 269 270 268 269 270 269 269 271 273 273 273 273 275 279 279 279 283 282 281 283 286 292 294 287 287 290 291 295 298 294 294 294 296 304 310 313 312 307 299 290
271 272 273 274 275 276 277 279 281 283 284 285 287 288 288 288 289 290 290 289 287 284 280 277 275 273 271 268 265 264 264 262 258 258 259 256 256 257 258 258 259 260 260 260 262 264 265 266 267 268 267 267 268 268 267 269 274 275 273 273 277 280 279 279 280 279 281 283 286 296 302 290 288 287 288 292 292 290 292 294 297 305 310 311 312 307 299 289
271 272 273 273 274 275 276 277 279 281 283 285 287 288 289 291 293 293 294 293 288 286 288 284 276 273 271 266 264 262 259 258 256 254 254 252 252 254 256 256 255 257 260 260 261 262 264 266 266 265 266 267 266 266 268 270 272 272 273 274 275 277 276 273 273 275 279 281 282 289 294 291 290 285 283 288 289 289 291 294 298 303 308 311 313 309 297 283
268 269 270 271 272 273 273 275 278 280 281 284 285 286 289 290 293 296 299 297 287 285 289 280 267 267 268 266 262 253 249 254 254 250 249 248 249 251 252 254 254 256 257 255 255 258 261 262 263 265 267 267 265 266 270 272 269 269 274 276 273 272 271 269 270 271 275 280 281 281 279 283 285 286 288 290 289 290 291 296 299 301 306 310 315 314 298 282
264 266 266 267 269 270 271 273 276 278 280 282 283 285 286 288 291 295 299 293 278 285 287 265 258 261 261 265 260 245 243 252 252 247 248 247 247 249 250 252 253 255 256 251 251 257 261 260 262 265 265 264 266 269 273 272 267 269 274 273 271 270 267 267 270 273 279 285 281 276 274 271 277 283 290 291 287 287 292 295 295 299 306 310 316 318 300 287
263 264 264 264 265 267 270 272 274 277 279 280 281 282 282 285 288 288 284 264 265 280 278 262 259 260 259 261 251 241 241 246 248 248 250 247 245 247 249 251 251 251 251 249 254 259 260 261 261 260 260 265 270 272 273 270 266 269 271 270 268 266 265 268 274 278 283 279 263 264 261 247 277 285 282 276 275 280 290 292 296 303 304 307 318 314 291 285
264 264 264 264 263 265 267 269 273 276 277 277 277 278 280 280 278 273 253 254 264 280 276 263 261 258 253 251 245 244 245 247 250 252 250 245 244 244 246 250 250 250 250 248 254 261 262 261 258 256 261 267 270 269 270 268 265 266 267 267 267 267 269 272 275 279 283 270 260 266 263 246 268 296 284 247 263 287 294 287 293 298 286 305 319 312 290 280
268 268 268 267 265 264 265 266 268 270 272 272 272 275 276 274 267 244 236 259 268 271 268 267 266 250 239 248 254 254 253 253 253 253 251 247 245 246 247 249 247 247 250 250 255 263 263 261 261 262 265 266 266 266 267 266 264 264 264 263 267 272 273 273 270 265 250 264 267 274 272 248 237 263 274 251 286 299 291 278 283 275 267 308 319 311 297 285
271 269 269 268 267 266 265 266 266 267 268 268 271 270 266 264 250 236 243 262 276 275 270 267 259 249 247 249 247 245 245 249 251 250 252 250 251 255 253 253 250 245 248 253 260 266 263 264 268 269 267 265 263 263 261 260 260 259 255 252 255 268 272 254 234 219 221 258 271 278 274 246 238 252 257 259 279 287 277 274 283 257 253 304 313 303 297 291
274 272 271 270 271 269 268 268 266 268 272 274 274 266 253 238 246 247 249 255 259 266 278 275 262 259 260 248 240 240 240 246 251 249 250 252 255 258 257 254 250 243 248 257 264 266 265 268 267 261 261 261 257 253 253 258 259 256 252 244 231 213 257 245 227 242 243 258 273 276 265 248 250 258 256 261 275 278 270 276 282 258 260 294 304 295 292 291
274 275 274 274 274 273 272 270 266 267 273 277 276 260 233 223 250 255 251 253 260 268 273 272 271 270 265 254 249 248 245 248 252 249 250 252 250 252 253 250 247 245 249 254 255 254 257 265 261 256 260 263 259 255 259 265 263 261 261 254 239 228 226 237 239 244 254 273 280 267 240 248 259 262 265 274 281 279 276 282 280 261 266 290 291 284 288 289
269 270 272 273 274 274 274 272 269 268 268 272 269 246 223 235 253 257 256 260 267 271 270 269 270 270 266 261 257 254 251 251 254 250 248 248 248 250 253 251 251 250 247 246 251 252 248 257 264 264 264 265 265 265 265 258 254 259 257 242 238 240 239 240 246 252 264 296 280 258 248 263 270 273 274 276 277 274 276 281 276 257 262 280 275 273 284 292
264 265 265 267 268 271 273 271 270 269 268 269 260 236 237 251 259 260 262 264 261 262 270 271 267 264 263 261 258 255 252 250 252 250 245 247 249 251 253 253 254 254 251 249 252 253 246 257 269 269 263 264 264 264 260 247 248 254 240 229 242 250 244 238 245 257 264 288 272 266 266 272 279 282 280 277 272 264 264 272 265 249 254 257 257 271 287 294
262 262 262 263 263 265 269 270 268 269 270 266 254 244 253 260 261 260 260 262 260 261 267 272 267 261 261 262 259 258 254 249 247 245 242 245 248 249 250 251 252 253 257 258 256 256 255 259 268 268 264 263 258 255 254 250 247 242 236 245 254 248 237 233 239 265 256 255 270 270 275 279 280 280 285 288 258 247 259 265 251 233 230 229 253 282 295 298
263 262 261 260 259 260 265 267 265 269 272 262 253 254 260 261 262 264 265 267 270 269 266 265 265 261 262 264 263 265 260 246 242 241 241 243 248 252 251 251 254 255 259 260 256 257 258 256 262 264 263 261 255 248 244 243 240 237 245 252 246 231 223 222 212 229 245 230 268 273 279 279 269 264 274 279 262 264 274 262 229 212 211 235 274 291 296 297
262 263 260 255 255 259 264 265 265 268 268 257 252 254 260 264 268 271 273 274 275 272 267 263 262 260 260 261 264 269 265 253 247 241 241 242 247 255 258 256 258 261 263 260 254 255 254 249 254 259 259 257 249 242 237 235 233 233 239 240 235 236 226 213 210 215 235 229 254 271 280 275 271 272 278 276 268 268 264 217 199 214 227 250 274 284 288 290
264 263 260 256 257 260 263 268 268 267 264 258 256 258 261 266 269 273 278 277 272 268 266 264 261 258 258 260 264 268 269 269 262 247 241 243 247 257 264 263 266 270 270 263 257 256 251 245 247 251 252 248 241 243 245 248 243 233 229 228 231 233 226 226 224 221 229 228 241 251 252 267 272 282 293 282 275 257 230 179 209 239 237 249 259 269 280 289
267 266 263 260 261 262 264 270 270 268 267 265 263 261 261 265 269 273 277 275 270 268 268 267 264 261 260 259 258 260 263 266 262 251 246 246 248 255 260 268 278 278 272 261 253 253 248 243 244 246 246 248 251 257 262 264 261 251 241 239 242 238 231 235 234 228 233 230 233 237 225 259 263 256 206 292 319 282 236 207 222 235 258 273 279 285 290 296
267 267 266 264 263 264 266 270 272 271 269 268 266 263 263 270 274 274 274 273 272 271 270 269 267 264 263 261 257 254 254 256 252 248 250 252 251 251 252 260 264 263 275 274 265 264 260 250 243 245 251 257 263 268 269 268 266 258 248 247 251 246 234 230 230 236 238 230 238 247 238 256 260 257 254 268 283 273 240 219 220 248 286 291 292 296 300 302
266 267 269 267 264 263 264 266 268 269 269 271 272 268 269 274 276 275 276 276 275 274 273 272 269 267 266 268 267 263 262 262 257 251 252 255 255 251 249 252 251 253 272 286 285 284 272 255 248 254 261 264 266 265 265 267 264 251 246 247 248 244 238 236 239 248 251 239 241 247 237 256 263 267 267 268 269 264 256 249 248 267 287 292 291 293 298 302
267 268 269 267 265 264 262 262 264 268 271 274 275 273 273 273 274 276 277 277 276 276 276 276 274 272 272 273 272 270 267 264 260 257 254 253 254 253 252 254 255 257 265 275 282 290 283 269 263 262 265 264 263 261 259 263 266 258 252 250 246 245 245 244 246 253 259 253 249 252 255 260 265 271 275 275 274 270 267 264 263 274 283 286 289 292 295 301
266 266 266 267 266 265 263 264 266 269 273 274 273 273 274 272 273 278 280 280 278 275 274 275 275 275 276 273 267 266 263 256 255 259 257 254 260 266 269 271 268 264 263 263 262 266 276 281 274 267 268 259 255 258 257 263 277 280 269 263 258 254 251 251 254 256 257 257 254 254 262 265 266 270 271 270 271 271 270 268 268 274 279 282 287 292 294 299
264 264 265 265 265 265 266 268 268 268 270 270 269 271 273 274 277 282 282 279 277 275 271 270 269 270 270 266 262 263 263 257 255 259 260 263 271 279 283 281 275 271 270 267 264 262 265 266 260 257 263 261 256 258 259 265 275 279 277 276 275 272 267 260 256 254 258 263 259 256 264 269 269 270 271 271 271 272 274 274 274 276 279 282 288 292 294 295
261 261 262 263 263 264 267 269 268 267 267 266 265 268 273 276 279 281 278 276 277 278 272 266 264 261 260 260 260 262 263 261 260 261 264 270 278 284 285 280 274 274 275 278 279 269 259 257 255 252 253 255 254 255 257 261 264 265 265 267 270 276 278 270 263 262 265 264 261 261 265 268 268 268 270 272 274 275 276 276 277 279 281 285 289 291 291 291
260 260 261 262 261 259 260 265 267 268 268 265 264 265 269 272 273 275 277 278 278 276 269 264 263 263 262 261 259 258 259 260 260 261 264 270 276 280 279 277 276 276 275 277 280 272 258 254 257 256 254 253 252 253 255 256 257 258 258 259 263 266 269 268 266 266 263 259 260 264 264 263 265 266 267 269 270 272 273 274 277 280 282 285 287 286 286 287
261 260 259 257 256 256 257 261 264 265 264 262 261 262 264 268 270 272 276 276 273 270 267 264 264 267 269 266 259 254 254 256 259 263 267 269 272 273 273 274 275 276 275 273 274 270 258 253 258 259 254 251 253 256 257 255 253 255 255 257 261 262 263 264 261 260 260 260 262 264 263 263 266 268 268 268 270 271 274 277 278 279 281 283 282 280 283 287
261 258 256 253 251 252 255 257 257 257 258 257 257 260 263 265 265 268 271 268 266 267 267 266 268 270 270 268 261 255 256 259 262 266 270 269 267 267 268 269 272 275 275 271 269 265 256 254 262 261 252 251 256 259 258 255 252 251 254 259 263 262 261 260 258 255 257 259 260 262 262 263 267 269 269 270 273 275 277 278 275 273 278 282 282 283 286 289
261 258 255 252 252 253 254 255 253 253 256 257 259 262 263 263 264 269 270 268 265 265 265 266 269 270 269 266 261 259 263 266 265 268 272 270 268 268 267 267 270 273 271 269 267 261 253 253 257 253 246 249 256 259 257 255 251 248 250 257 262 260 257 257 258 257 257 257 259 259 259 262 267 270 270 271 274 275 275 274 269 271 282 284 283 285 288 290
261 259 256 252 252 256 258 257 253 252 255 256 259 262 263 263 266 267 268 268 265 263 264 266 267 268 268 266 265 267 270 269 267 267 269 269 268 268 265 263 266 267 266 265 263 258 254 252 249 245 242 247 255 260 258 254 249 241 243 253 260 261 261 260 258 259 259 257 256 257 262 268 272 272 270 271 273 273 273 271 270 277 285 284 280 282 286 287
Height
3187 3188 3188 3188 3188 3187 3187 3187 3187 3186 3186 3186 3185 3185 3185 3184 3184 3183 3183 3183 3183 3182 3182 3182 3182 3181 3181 3180 3180 3180 3180 3180 3180 3179 3180 3179 3179 3179 3179 3178 3178 3178 3177 3177 3176 3175 3175 3175 3174 3174 3173 3173 3172 3172 3172 3172 3172 3171 3170 3170 3169 3168 3168 3168 3168 3166 3165 3164 3162 3160 3160 3160 3158 3157 3158 3158 3156 3156 3155 3155 3154 3153 3153 3152 3151 3150 3150 3150
3186 3186 3187 3187 3187 3187 3186 3186 3186 3186 3186 3185 3185 3185 3184 3184 3183 3183 3183 3182 3182 3181 3181 3181 3181 3180 3180 3180 3179 3179 3179 3179 3179 3179 3179 3179 3178 3178 3178 3178 3177 3177 3177 3176 3176 3175 3174 3174 3173 3173 3172 3172 3172 3172 3171 3171 3171 3170 3169 3168 3167 3167 3167 3167 3166 3165 3164 3163 3161 3159 3158 3158 3157 3156 3156 3156 3155 3154 3153 3153 3152 3151 3151 3150 3150 3149 3148 3149
3185 3185 3185 3185 3185 3185 3185 3185 3185 3185 3185 3184 3184 3184 3184 3183 3183 3183 3182 3182 3181 3181 3180 3180 3179 3179 3179 3178 3178 3178 3178 3178 3177 3178 3178 3178 3177 3177 3177 3177 3177 3176 3176 3175 3175 3174 3174 3173 3173 3172 3172 3171 3171 3171 3170 3170 3170 3169 3168 3167 3166 3166 3166 3165 3164 3162 3162 3161 3160 3159 3156 3156 3156 3154 3154 3154 3153 3152 3151 3151 3150 3149 3149 3147 3147 3147 3146 3146
3183 3183 3183 3184 3184 3184 3184 3184 3184 3184 3184 3184 3183 3183 3183 3183 3182 3182 3181 3181 3180 3180 3179 3179 3178 3178 3177 3177 3177 3176 3176 3176 3176 3177 3176 3176 3176 3176 3176 3176 3176 3175 3175 3175 3174 3174 3173 3173 3172 3171 3171 3170 3170 3169 3169 3169 3168 3168 3166 3165 3165 3165 3164 3163 3162 3160 3160 3159 3158 3157 3155 3154 3154 3152 3152 3152 3150 3150 3149 3148 3147 3147 3146 3145 3145 3145 3144 3144
3182 3182 3182 3182 3182 3183 3183 3183 3183 3183 3183 3183 3182 3182 3182 3182 3181 3181 3181 3180 3180 3179 3179 3178 3177 3177 3176 3176 3175 3175 3175 3175 3175 3175 3175 3175 3175 3175 3175 3175 3175 3174 3174 3173 3173 3173 3172 3172 3171 3171 3170 3170 3169 3168 3167 3167 3167 3166 3164 3164 3163 3163 3161 3160 3159 3158 3158 3157 3156 3155 3153 3152 3152 3150 3150 3149 3148 3148 3148 3146 3145 3144 3143 3142 3142 3142 3142 3142
3180 3180 3180 3181 3181 3181 3181 3181 3182 3182 3181 3181 3181 3181 3181 3180 3180 3180 3179 3179 3178 3178 3177 3177 3176 3176 3175 3175 3174 3174 3174 3173 3173 3174 3174 3174 3174 3174 3174 3174 3173 3173 3173 3172 3172 3172 3171 3171 3170 3170 3169 3169 3168 3167 3167 3166 3165 3163 3162 3163 3162 3161 3159 3158 3157 3156 3156 3154 3153 3152 3151 3151 3149 3148 3148 3147 3145 3147 3147 3145 3143 3142 3141 3140 3139 3139 3139 3139
3178 3179 3179 3179 3179 3179 3180 3180 3180 3180 3180 3180 3180 3179 3179 3179 3179 3178 3178 3178 3177 3177 3176 3176 3175 3174 3174 3173 3173 3172 3172 3172 3173 3172 3172 3172 3172 3172 3172 3172 3172 3171 3171 3171 3171 3170 3170 3170 3169 3169 3168 3167 3167 3167 3167 3165 3163 3161 3160 3161 3160 3159 3158 3157 3155 3154 3153 3152 3151 3150 3148 3149 3147 3145 3145 3144 3144 3145 3144 3143 3141 3140 3139 3138 3137 3137 3137 3137
3177 3177 3177 3177 3177 3177 3178 3178 3178 3178 3178 3178 3178 3178 3177 3177 3177 3177 3176 3176 3176 3175 3174 3174 3173 3173 3172 3171 3171 3170 3170 3171 3172 3171 3170 3170 3170 3170 3170 3170 3170 3170 3170 3169 3169 3169 3168 3168 3168 3167 3166 3166 3166 3166 3166 3164 3162 3160 3158 3158 3157 3156 3156 3155 3153 3151 3151 3150 3149 3147 3145 3146 3145 3143 3141 3141 3142 3142 3141 3140 3138 3137 3137 3136 3135 3135 3135 3134
3175 3175 3175 3175 3175 3176 3176 3176 3176 3176 3176 3176 3176 3176 3175 3175 3175 3175 3174 3174 3174 3173 3173 3172 3171 3171 3170 3170 3169 3168 3169 3170 3170 3169 3169 3169 3169 3169 3168 3168 3168 3168 3168 3168 3168 3167 3167 3167 3166 3165 3164 3164 3164 3163 3163 3162 3160 3158 3157 3156 3154 3153 3153 3152 3150 3148 3147 3147 3145 3144 3143 3143 3143 3140 3136 3138 3141 3140 3138 3137 3136 3135 3134 3134 3132 3132 3132 3131
3173 3173 3173 3173 3174 3174 3174 3174 3174 3174 3174 3174 3174 3174 3173 3173 3173 3173 3172 3172 3171 3171 3171 3170 3169 3169 3168 3168 3167 3166 3168 3168 3168 3167 3167 3167 3167 3167 3167 3167 3167 3166 3166 3166 3166 3166 3165 3165 3164 3163 3162 3162 3162 3161 3161 3159 3157 3156 3155 3153 3151 3151 3150 3149 3147 3145 3144 3143 3141 3140 3140 3140 3140 3136 3133 3136 3139 3136 3136 3135 3134 3133 3132 3132 3130 3129 3128 3128
3171 3171 3171 3171 3172 3171 3172 3172 3172 3172 3172 3172 3171 3171 3171 3171 3171 3170 3170 3170 3169 3169 3168 3168 3167 3166 3166 3166 3164 3164 3166 3166 3165 3165 3165 3165 3165 3165 3165 3165 3165 3165 3164 3164 3164 3164 3164 3163 3162 3162 3161 3159 3159 3158 3157 3156 3155 3154 3153 3150 3149 3148 3147 3146 3144 3143 3142 3139 3138 3137 3136 3136 3135 3132 3131 3135 3135 3133 3133 3132 3131 3130 3129 3129 3128 3126 3125 3124
3169 3169 3169 3169 3169 3169 3169 3169 3170 3170 3169 3169 3169 3169 3169 3168 3168 3168 3168 3167 3167 3166 3166 3165 3164 3164 3163 3162 3162 3163 3164 3164 3163 3163 3163 3163 3163 3163 3163 3163 3163 3162 3162 3162 3162 3162 3161 3161 3160 3159 3159 3157 3156 3156 3154 3153 3153 3152 3150 3146 3145 3145 3143 3142 3141 3140 3139 3137 3136 3135 3131 3130 3130 3128 3129 3132 3131 3130 3130 3129 3128 3127 3126 3125 3124 3123 3122 3121
3166 3166 3166 3167 3167 3167 3167 3167 3167 3167 3167 3167 3167 3167 3166 3165 3165 3165 3165 3165 3164 3164 3163 3162 3162 3161 3159 3159 3161 3161 3161 3161 3161 3161 3161 3161 3161 3161 3161 3160 3160 3160 3160 3160 3159 3159 3159 3158 3157 3157 3156 3155 3154 3153 3151 3151 3150 3148 3147 3144 3141 3140 3138 3138 3138 3136 3135 3134 3134 3133 3127 3124 3126 3126 3127 3129 3128 3127 3126 3125 3125 3123 3123 3122 3121 3120 3118 3117
3163 3163 3164 3164 3164 3164 3164 3164 3164 3164 3165 3164 3164 3164 3163 3163 3162 3162 3162 3162 3162 3161 3160 3160 3159 3157 3156 3156 3158 3158 3158 3159 3158 3159 3159 3159 3158 3158 3158 3158 3158 3157 3157 3157 3157 3156 3156 3155 3155 3154 3153 3152 3151 3150 3149 3149 3148 3145 3144 3142 3139 3136 3133 3134 3135 3132 3132 3131 3130 3130 3123 3119 3123 3125 3125 3125 3124 3123 3122 3122 3121 3119 3119 3118 3118 3117 3115 3114
3160 3160 3161 3161 3161 3161 3161 3161 3161 3161 3162 3162 3162 3161 3161 3160 3159 3159 3159 3158 3158 3158 3157 3156 3156 3154 3152 3152 3155 3155 3155 3156 3155 3157 3157 3155 3156 3155 3155 3155 3155 3154 3154 3154 3154 3153 3153 3152 3151 3151 3150 3150 3148 3147 3146 3146 3145 3143 3140 3138 3137 3134 3130 3130 3131 3129 3129 3128 3128 3126 3120 3116 3119 3121 3121 3121 3120 3119 3117 3118 3118 3116 3114 3113 3113 3112 3110 3110
3157 3158 3158 3158 3158 3158 3159 3159 3158 3158 3159 3159 3159 3158 3158 3157 3156 3156 3155 3155 3155 3154 3154 3153 3152 3151 3148 3149 3152 3152 3152 3153 3153 3154 3153 3153 3152 3152 3152 3152 3151 3151 3151 3151 3151 3150 3149 3148 3148 3148 3147 3146 3145 3143 3143 3142 3140 3140 3138 3135 3134 3132 3129 3128 3127 3126 3126 3124 3124 3122 3117 3114 3115 3118 3118 3117 3116 3114 3112 3112 3114 3112 3110 3109 3108 3107 3104 3103
3154 3154 3155 3155 3155 3155 3155 3155 3155 3155 3155 3156 3156 3155 3155 3154 3154 3153 3152 3152 3151 3151 3150 3148 3149 3147 3144 3146 3148 3148 3150 3150 3150 3150 3150 3150 3150 3149 3149 3148 3148 3148 3148 3147 3147 3146 3145 3145 3144 3144 3144 3143 3141 3141 3140 3138 3136 3137 3136 3133 3132 3130 3128 3127 3124 3124 3123 3120 3119 3118 3113 3110 3111 3115 3116 3115 3113 3109 3107 3107 3108 3109 3107 3106 3105 3103 3100 3098
3151 3151 3151 3151 3151 3152 3152 3151 3151 3152 3152 3152 3152 3151 3151 3150 3150 3149 3148 3148 3148 3147 3146 3144 3145 3142 3139 3143 3144 3144 3146 3146 3146 3147 3147 3147 3147 3146 3145 3145 3145 3145 3144 3143 3143 3142 3142 3141 3140 3140 3140 3138 3137 3137 3135 3133 3133 3134 3133 3132 3130 3128 3127 3124 3122 3122 3122 3118 3115 3114 3109 3106 3107 3110 3111 3112 3111 3106 3103 3102 3102 3103 3102 3101 3101 3100 3098 3095
3148 3148 3148 3148 3148 3148 3148 3147 3148 3148 3148 3149 3148 3148 3147 3147 3146 3145 3144 3144 3144 3143 3142 3141 3141 3139 3136 3138 3141 3141 3142 3143 3142 3143 3144 3144 3144 3143 3142 3142 3141 3141 3140 3139 3138 3138 3138 3136 3135 3135 3134 3133 3133 3133 3130 3130 3132 3131 3130 3128 3126 3125 3122 3119 3118 3120 3120 3115 3112 3110 3105 3103 3103 3104 3104 3105 3106 3103 3099 3098 3097 3096 3096 3096 3095 3094 3094 3092
3145 3145 3145 3145 3145 3145 3144 3144 3145 3145 3145 3145 3145 3144 3143 3143 3141 3140 3139 3139 3139 3139 3139 3137 3135 3135 3135 3134 3137 3138 3138 3139 3138 3139 3141 3140 3140 3139 3139 3138 3137 3136 3135 3135 3134 3134 3134 3130 3128 3129 3129 3130 3131 3130 3129 3128 3129 3127 3126 3124 3123 3121 3116 3114 3115 3116 3116 3111 3107 3106 3102 3100 3099 3098 3099 3099 3099 3097 3095 3095 3093 3092 3092 3091 3090 3089 3088 3087
3142 3142 3142 3142 3142 3141 3141 3141 3141 3141 3141 3141 3142 3140 3140 3139 3137 3135 3133 3132 3133 3134 3134 3133 3131 3130 3131 3131 3132 3134 3134 3134 3133 3135 3136 3136 3136 3135 3134 3134 3132 3131 3131 3132 3131 3130 3128 3122 3120 3124 3127 3129 3129 3128 3128 3127 3126 3125 3122 3120 3119 3117 3112 3111 3113 3112 3111 3106 3101 3102 3099 3095 3095 3094 3094 3094 3093 3091 3091 3091 3089 3088 3089 3087 3087 3085 3084 3082
3139 3139 3139 3139 3139 3138 3138 3138 3138 3138 3138 3138 3138 3137 3136 3136 3133 3131 3128 3123 3124 3129 3128 3128 3128 3125 3127 3127 3127 3129 3129 3128 3128 3129 3132 3133 3131 3130 3129 3128 3127 3126 3127 3128 3127 3125 3119 3113 3115 3123 3126 3126 3125 3124 3125 3124 3123 3121 3119 3117 3114 3113 3109 3108 3110 3109 3107 3102 3097 3098 3094 3089 3090 3089 3089 3088 3087 3087 3086 3086 3085 3085 3085 3083 3083 3082 3079 3077
3136 3136 3136 3136 3136 3136 3135 3135 3135 3135 3135 3135 3135 3134 3133 3132 3130 3128 3125 3116 3114 3121 3122 3121 3122 3120 3122 3122 3123 3125 3123 3122 3123 3122 3128 3128 3124 3126 3124 3121 3122 3123 3122 3121 3122 3119 3110 3107 3114 3121 3124 3122 3120 3120 3120 3120 3119 3116 3115 3114 3110 3110 3108 3105 3105 3106 3104 3099 3095 3092 3087 3082 3083 3082 3082 3083 3082 3082 3081 3081 3081 3081 3080 3078 3078 3077 3075 3073
3133 3133 3133 3133 3134 3133 3132 3133 3132 3132 3133 3133 3132 3132 3130 3129 3127 3125 3122 3113 3104 3108 3115 3116 3115 3114 3116 3117 3118 3120 3117 3117 3117 3116 3122 3122 3118 3120 3119 3117 3117 3117 3116 3115 3116 3112 3104 3107 3114 3117 3118 3118 3116 3115 3117 3116 3113 3110 3111 3110 3106 3107 3107 3102 3102 3102 3099 3095 3092 3088 3079 3072 3076 3076 3073 3076 3077 3075 3076 3076 3076 3076 3075 3075 3073 3072 3071 3068
3129 3130 3130 3130 3130 3129 3130 3129 3129 3129 3129 3130 3129 3129 3127 3126 3126 3123 3119 3111 3097 3095 3105 3110 3109 3107 3109 3111 3112 3114 3111 3110 3110 3111 3115 3115 3113 3114 3113 3113 3111 3109 3111 3113 3111 3105 3100 3107 3111 3112 3112 3113 3112 3110 3112 3113 3109 3105 3105 3106 3104 3103 3103 3101 3100 3098 3094 3091 3089 3089 3077 3060 3064 3073 3068 3070 3072 3070 3071 3071 3070 3072 3071 3071 3070 3068 3067 3064
3126 3126 3126 3127 3127 3126 3126 3125 3126 3126 3126 3127 3126 3125 3125 3123 3124 3122 3118 3109 3093 3087 3095 3100 3101 3100 3101 3103 3105 3107 3104 3100 3102 3106 3106 3107 3108 3108 3108 3107 3106 3105 3107 3110 3107 3100 3098 3103 3106 3107 3108 3108 3107 3106 3108 3111 3106 3100 3099 3102 3102 3100 3099 3097 3097 3095 3090 3088 3086 3089 3085 3059 3049 3063 3066 3066 3068 3066 3067 3066 3065 3068 3067 3067 3066 3064 3063 3061
3122 3122 3122 3123 3123 3123 3123 3122 3123 3123 3123 3124 3123 3122 3122 3121 3122 3120 3118 3109 3090 3084 3090 3092 3093 3094 3094 3096 3098 3099 3096 3092 3095 3098 3098 3100 3102 3103 3102 3101 3101 3101 3103 3106 3102 3095 3096 3099 3100 3102 3103 3103 3102 3101 3103 3108 3104 3095 3094 3098 3098 3097 3097 3094 3093 3092 3086 3086 3082 3083 3090 3070 3042 3048 3060 3061 3063 3062 3062 3063 3061 3063 3063 3063 3063 3061 3059 3057
3117 3118 3118 3118 3119 3119 3119 3120 3119 3119 3120 3119 3119 3120 3119 3119 3121 3119 3120 3110 3089 3082 3087 3088 3089 3090 3091 3092 3092 3093 3091 3088 3091 3092 3093 3096 3097 3098 3097 3096 3098 3097 3099 3101 3094 3090 3094 3095 3096 3098 3099 3097 3097 3097 3099 3102 3099 3093 3092 3094 3094 3094 3093 3091 3089 3088 3085 3083 3077 3075 3087 3076 3042 3040 3056 3055 3057 3059 3057 3058 3058 3058 3059 3058 3059 3059 3056 3055
3114 3114 3114 3115 3115 3116 3116 3116 3116 3116 3116 3116 3116 3116 3116 3118 3117 3118 3120 3106 3085 3082 3086 3086 3087 3089 3089 3090 3089 3088 3087 3086 3088 3089 3092 3094 3093 3093 3092 3092 3095 3093 3094 3094 3088 3088 3091 3091 3091 3092 3093 3092 3092 3093 3095 3096 3093 3091 3091 3090 3090 3090 3089 3089 3086 3085 3085 3077 3070 3072 3082 3074 3042 3034 3050 3050 3050 3053 3052 3054 3054 3054 3055 3054 3055 3055 3054 3054
3111 3110 3110 3111 3111 3112 3112 3113 3114 3113 3112 3112 3112 3112 3114 3114 3114 3117 3114 3095 3082 3084 3084 3083 3086 3087 3087 3087 3087 3087 3087 3087 3088 3089 3091 3091 3090 3090 3088 3088 3091 3089 3089 3088 3084 3085 3088 3086 3086 3087 3088 3088 3088 3089 3089 3089 3088 3087 3088 3087 3087 3087 3085 3087 3082 3083 3084 3067 3060 3068 3074 3073 3049 3032 3042 3045 3044 3048 3048 3049 3050 3050 3051 3051 3050 3049 3048 3050
3108 3107 3107 3107 3108 3109 3107 3109 3111 3110 3109 3109 3109 3110 3110 3110 3112 3112 3099 3083 3082 3084 3081 3081 3084 3085 3086 3085 3085 3086 3086 3086 3087 3087 3088 3088 3087 3086 3084 3085 3086 3086 3085 3083 3080 3082 3083 3081 3081 3082 3084 3084 3084 3085 3083 3084 3084 3084 3085 3084 3084 3084 3082 3082 3079 3082 3080 3058 3053 3063 3066 3066 3049 3032 3039 3041 3040 3043 3043 3044 3045 3045 3046 3046 3046 3045 3043 3043
3104 3104 3104 3102 3103 3104 3104 3104 3106 3107 3107 3106 3107 3106 3106 3108 3106 3096 3083 3082 3085 3081 3078 3081 3080 3081 3083 3082 3081 3083 3083 3083 3084 3085 3085 3085 3083 3081 3081 3081 3082 3082 3080 3077 3077 3078 3077 3075 3077 3079 3080 3080 3081 3080 3079 3078 3079 3079 3079 3081 3083 3082 3080 3080 3077 3077 3071 3053 3049 3059 3060 3053 3035 3029 3038 3039 3038 3040 3038 3039 3041 3041 3042 3042 3043 3041 3040 3039
3099 3100 3099 3098 3097 3098 3099 3100 3102 3103 3102 3103 3103 3101 3103 3105 3092 3078 3078 3086 3085 3080 3079 3080 3079 3080 3080 3078 3078 3079 3079 3080 3081 3083 3082 3081 3079 3077 3077 3077 3078 3079 3076 3074 3074 3074 3072 3070 3073 3074 3073 3075 3075 3074 3073 3072 3073 3072 3072 3075 3078 3078 3078 3076 3073 3069 3059 3048 3048 3054 3053 3042 3027 3027 3034 3034 3036 3037 3034 3036 3037 3037 3039 3039 3039 3038 3036 3036
3095 3095 3094 3093 3093 3093 3093 3095 3097 3098 3098 3098 3097 3096 3099 3095 3079 3071 3079 3083 3082 3081 3080 3079 3078 3079 3076 3075 3075 3075 3077 3077 3077 3079 3078 3075 3073 3070 3071 3071 3073 3074 3074 3073 3071 3070 3069 3065 3064 3067 3068 3069 3068 3069 3070 3069 3067 3065 3065 3069 3068 3068 3070 3068 3065 3059 3051 3047 3047 3048 3045 3033 3024 3026 3029 3029 3031 3031 3030 3032 3032 3032 3034 3036 3035 3034 3033 3032
3090 3090 3089 3089 3088 3088 3089 3090 3091 3093 3093 3093 3091 3090 3089 3082 3071 3071 3076 3078 3080 3081 3079 3077 3077 3075 3072 3071 3071 3072 3074 3073 3073 3074 3071 3069 3067 3065 3065 3066 3068 3071 3071 3070 3067 3067 3065 3057 3056 3061 3063 3063 3063 3066 3068 3066 3063 3060 3062 3063 3059 3059 3062 3060 3056 3050 3050 3050 3042 3037 3034 3025 3020 3021 3024 3027 3026 3026 3026 3026 3027 3028 3030 3032 3031 3030 3030 3029
3085 3084 3084 3084 3083 3084 3085 3086 3086 3087 3088 3088 3085 3081 3077 3071 3068 3071 3073 3075 3078 3079 3076 3074 3073 3071 3068 3067 3067 3067 3069 3070 3069 3068 3065 3064 3062 3059 3060 3061 3064 3067 3066 3065 3063 3062 3059 3053 3053 3056 3055 3057 3059 3061 3064 3062 3058 3056 3055 3053 3051 3055 3056 3054 3051 3047 3051 3050 3036 3029 3026 3021 3019 3014 3013 3019 3020 3020 3022 3021 3022 3024 3025 3027 3027 3026 3026 3025
3079 3079 3078 3079 3080 3080 3080 3081 3081 3081 3082 3082 3077 3073 3070 3066 3066 3069 3071 3073 3075 3076 3075 3072 3069 3068 3065 3063 3063 3063 3065 3065 3063 3061 3060 3059 3055 3052 3055 3056 3058 3061 3062 3061 3059 3058 3055 3050 3050 3050 3048 3051 3054 3056 3058 3056 3053 3051 3049 3048 3050 3052 3051 3050 3050 3048 3049 3047 3034 3026 3023 3021 3018 3008 3005 3013 3015 3014 3018 3018 3018 3020 3021 3023 3023 3023 3023 3022
3075 3073 3072 3074 3075 3074 3075 3076 3075 3075 3075 3073 3070 3068 3065 3062 3062 3065 3068 3070 3071 3071 3071 3068 3066 3065 3064 3062 3060 3061 3061 3059 3057 3055 3054 3053 3047 3046 3051 3053 3053 3054 3057 3059 3055 3053 3053 3047 3045 3046 3043 3045 3049 3050 3049 3047 3047 3047 3046 3047 3047 3045 3043 3045 3046 3045 3045 3043 3032 3025 3023 3016 3009 3003 3004 3012 3013 3012 3013 3014 3015 3017 3018 3019 3020 3020 3020 3020
3070 3068 3065 3067 3069 3068 3070 3070 3069 3069 3068 3065 3062 3061 3060 3059 3060 3063 3065 3066 3067 3067 3065 3063 3063 3062 3061 3060 3059 3059 3058 3053 3052 3051 3048 3047 3043 3042 3047 3049 3049 3049 3052 3054 3050 3048 3048 3043 3041 3042 3040 3041 3044 3041 3038 3038 3042 3043 3041 3042 3040 3038 3038 3037 3038 3037 3037 3036 3030 3026 3024 3007 2994 3001 3007 3007 3009 3009 3009 3011 3013 3015 3016 3017 3018 3017 3017 3018
3065 3063 3059 3062 3064 3063 3064 3065 3063 3062 3060 3058 3056 3055 3056 3057 3058 3061 3062 3061 3062 3062 3060 3059 3059 3058 3057 3057 3055 3056 3056 3052 3051 3049 3044 3043 3042 3041 3044 3045 3046 3046 3046 3047 3045 3043 3043 3039 3037 3038 3037 3035 3033 3030 3030 3033 3036 3035 3033 3034 3033 3034 3035 3033 3033 3031 3029 3029 3025 3025 3023 3001 2990 3003 3007 3004 3007 3007 3007 3010 3011 3013 3014 3014 3014 3014 3014 3016
3060 3056 3054 3059 3059 3057 3060 3058 3055 3055 3052 3052 3052 3051 3053 3054 3055 3057 3059 3057 3056 3055 3055 3054 3054 3053 3052 3052 3051 3052 3052 3049 3048 3046 3042 3040 3040 3040 3042 3043 3044 3045 3043 3042 3041 3040 3039 3035 3033 3034 3031 3027 3025 3027 3031 3030 3030 3028 3026 3027 3027 3029 3031 3030 3027 3023 3021 3021 3017 3019 3016 2997 2990 3002 3006 3004 3007 3006 3006 3008 3008 3009 3011 3010 3010 3010 3011 3012
3053 3050 3050 3055 3054 3053 3055 3052 3049 3049 3045 3045 3047 3047 3049 3051 3051 3053 3054 3054 3052 3051 3050 3049 3048 3048 3047 3047 3048 3048 3047 3044 3042 3041 3037 3036 3037 3037 3038 3039 3039 3040 3039 3038 3037 3037 3036 3032 3030 3028 3025 3024 3025 3029 3030 3027 3027 3026 3023 3023 3025 3024 3023 3021 3017 3016 3017 3015 3013 3014 3007 2988 2986 2999 3004 3004 3008 3007 3005 3004 3004 3005 3005 3005 3006 3005 3005 3007
3047 3045 3046 3049 3048 3048 3049 3046 3044 3042 3039 3041 3043 3043 3046 3047 3046 3048 3049 3049 3048 3046 3045 3044 3043 3042 3040 3041 3043 3043 3043 3040 3036 3035 3033 3032 3032 3032 3033 3034 3034 3034 3034 3033 3034 3034 3032 3029 3027 3024 3023 3024 3025 3027 3026 3023 3024 3023 3020 3022 3021 3018 3017 3014 3012 3014 3012 3010 3010 3008 2996 2984 2986 2996 3001 3001 3004 3006 3005 3003 3002 3001 3000 3001 3001 3001 3001 3001
3042 3041 3040 3042 3042 3041 3041 3039 3038 3035 3034 3038 3038 3038 3041 3041 3040 3042 3043 3043 3043 3041 3039 3038 3037 3036 3035 3036 3037 3037 3038 3036 3031 3031 3032 3029 3028 3029 3030 3031 3031 3031 3032 3031 3030 3030 3029 3027 3025 3023 3022 3022 3022 3022 3020 3019 3019 3019 3018 3019 3017 3015 3016 3014 3013 3013 3007 3005 3007 2999 2988 2986 2990 2994 2997 2998 2998 3000 3001 3000 2998 2996 2995 2996 2997 2997 2998 2996
3036 3035 3034 3036 3035 3033 3032 3033 3034 3031 3030 3033 3031 3031 3034 3032 3032 3036 3035 3034 3036 3035 3032 3031 3031 3030 3031 3032 3031 3030 3031 3031 3027 3027 3028 3026 3025 3025 3026 3026 3026 3027 3027 3028 3028 3028 3027 3025 3024 3022 3020 3019 3018 3016 3015 3016 3017 3016 3015 3015 3014 3015 3015 3012 3011 3009 3002 3001 3002 2994 2987 2988 2992 2992 2992 2992 2992 2993 2994 2994 2992 2991 2991 2992 2993 2993 2992 2991
3029 3027 3028 3029 3028 3025 3024 3027 3030 3026 3026 3027 3024 3023 3026 3023 3023 3029 3028 3025 3027 3028 3025 3024 3025 3025 3025 3025 3025 3023 3024 3025 3024 3022 3022 3021 3019 3018 3019 3020 3020 3020 3020 3022 3024 3024 3021 3020 3021 3019 3016 3014 3013 3011 3012 3014 3013 3011 3011 3011 3011 3012 3012 3011 3008 3004 3001 2999 2994 2991 2991 2989 2991 2992 2986 2983 2985 2986 2986 2986 2984 2984 2985 2987 2988 2986 2985 2985
3022 3020 3022 3024 3021 3019 3018 3020 3022 3019 3021 3023 3018 3016 3019 3018 3017 3020 3020 3018 3019 3021 3019 3017 3019 3020 3018 3019 3018 3015 3016 3018 3018 3017 3015 3014 3012 3010 3011 3013 3013 3013 3015 3015 3017 3018 3014 3010 3012 3012 3009 3009 3009 3007 3009 3009 3005 3004 3005 3004 3006 3008 3008 3007 3003 3000 3002 2996 2985 2989 2994 2987 2985 2988 2983 2977 2978 2978 2979 2978 2976 2977 2979 2980 2981 2980 2978 2978
3015 3013 3017 3019 3016 3013 3013 3013 3014 3013 3014 3016 3013 3011 3013 3013 3012 3013 3012 3012 3012 3014 3013 3010 3010 3012 3011 3013 3012 3008 3009 3011 3010 3010 3009 3007 3006 3004 3003 3004 3004 3006 3009 3008 3008 3010 3005 2999 3002 3003 2999 3000 3003 3003 3004 3002 2997 2995 2997 2997 3000 3001 3002 3002 2997 2995 2995 2988 2979 2985 2989 2979 2976 2981 2978 2973 2971 2970 2971 2971 2970 2971 2971 2972 2974 2974 2972 2971
3008 3007 3010 3012 3009 3007 3009 3010 3010 3008 3008 3009 3007 3006 3007 3007 3007 3007 3009 3008 3005 3007 3007 3002 3001 3004 3004 3006 3005 3002 3002 3004 3001 3002 3002 3000 2999 2999 2997 2996 2996 2999 3001 3000 3000 3002 2997 2991 2993 2993 2989 2990 2993 2994 2994 2993 2990 2988 2989 2990 2993 2994 2994 2991 2986 2985 2985 2981 2977 2979 2976 2970 2971 2971 2968 2966 2966 2967 2966 2963 2962 2963 2963 2964 2966 2966 2966 2965
3001 3001 3002 3003 3001 3001 3003 3005 3005 3003 3003 3004 3001 3000 3002 3001 3000 3002 3004 3003 3000 3000 3001 2996 2995 2998 2998 2998 2997 2994 2994 2996 2993 2992 2994 2992 2992 2994 2991 2989 2990 2991 2993 2992 2993 2993 2990 2984 2985 2987 2982 2979 2981 2982 2982 2982 2982 2981 2981 2984 2988 2987 2981 2974 2972 2975 2976 2972 2969 2968 2965 2962 2962 2959 2958 2961 2962 2962 2960 2955 2953 2954 2956 2957 2957 2957 2959 2959
2994 2994 2995 2994 2992 2995 2997 2998 3000 2998 2997 2998 2995 2995 2997 2996 2996 2998 2997 2995 2996 2995 2995 2992 2991 2992 2992 2991 2989 2987 2988 2990 2986 2984 2987 2986 2986 2987 2985 2982 2985 2985 2984 2984 2984 2983 2982 2978 2979 2982 2974 2967 2971 2972 2968 2971 2973 2972 2974 2979 2980 2973 2964 2960 2964 2967 2966 2961 2959 2959 2956 2951 2950 2951 2955 2957 2955 2953 2951 2948 2946 2948 2951 2951 2950 2950 2952 2952
2987 2986 2988 2987 2985 2987 2990 2990 2992 2991 2989 2991 2991 2991 2991 2991 2993 2995 2989 2986 2990 2991 2990 2990 2989 2988 2985 2984 2984 2984 2984 2982 2979 2978 2979 2978 2978 2979 2977 2976 2978 2978 2976 2976 2975 2973 2973 2971 2972 2973 2963 2958 2963 2963 2960 2965 2963 2957 2963 2971 2965 2957 2955 2956 2957 2956 2953 2951 2949 2946 2942 2940 2943 2948 2950 2948 2946 2943 2941 2940 2940 2943 2946 2945 2943 2944 2945 2946